Location: Cornelius Cemetery
(36.9614°N, 87.6253°W)
Time: 23:26:50
(UTC+00:00)

Daily predictions for brighter satellites

Satellite Brightness Start Highest point End
(mag) Time Altitude Azimuth Time Altitude Azimuth Time Altitude Azimuth
BREEZE-M DEB (TANK) 4.4 12:01:56 10° NW 12:05:34 49° NE 12:17:58 10° ESE
CSL-04 Rocket 4.1 12:02:43 10° NNE 12:07:59 68° ESE 12:13:16 10° S
Cosmos 2263 Rocket 3.5 12:03:54 10° N 12:09:18 44° ENE 12:14:42 10° SE
EO 1 Del DPAF 4.0 12:06:29 10° SSW 12:09:56 32° W 12:13:24 10° NNW
